{"data":{"norad_id":49304,"epoch":"2026-09-19T19:16:10.097760Z","epoch_age_seconds":85925,"freshness":"FRESH","line1":"1 49304U 21090AB  26262.80289465  .00000066  00000+0  12952-3 0  9995","line2":"2 49304  87.9142 255.5634 0002112  88.7651 271.3724 13.20772307242279","mean_motion":13.20772307,"eccentricity":0.0002112,"inclination_deg":87.9142,"raan_deg":255.5634,"arg_perigee_deg":88.7651,"mean_anomaly_deg":271.3724,"bstar":0.00012952,"rev_number":24227,"period_min":109.02711938826,"perigee_km":1180.174834749,"apogee_km":1183.368140094,"semimajor_km":7559.9084874215,"source":"CELESTRAK","updated_at":"2026-09-20T09:00:44.674053Z"}}